This is the latest recevied weather packets stored in our database for station/object WA1TYB-13. If no packets are shown the sender has not sent any weather packets the latest 10 day(s).
| Time | Temp. | Humidity | Pressure | Rain* | Wind** | Luminosity | Snow |
|---|---|---|---|---|---|---|---|
| 1778165303 | 11.11° C | 78% | 1015.9 hPa | 0 mm | - | 197 W/m² | - |
| 1778165000 | 11.11° C | 78% | 1015.7 hPa | 0 mm | - | 172 W/m² | - |
| 1778164696 | 11.11° C | 77% | 1015.7 hPa | 0 mm | - | 98 W/m² | - |
| 1778164394 | 11.11° C | 77% | 1015.3 hPa | 0 mm | - | 117 W/m² | - |
| 1778164089 | 10.56° C | 77% | 1015.3 hPa | 0 mm | - | 145 W/m² | - |
| 1778163786 | 10.56° C | 78% | 1015.2 hPa | 0 mm | - | 99 W/m² | - |
| 1778163483 | 10.56° C | 79% | 1015 hPa | 0 mm | - | 104 W/m² | - |
| 1778163180 | 10.56° C | 79% | 1014.8 hPa | 0 mm | - | 71 W/m² | - |
| 1778162876 | 10.56° C | 80% | 1014.7 hPa | 0 mm | - | 53 W/m² | - |
| 1778162573 | 10.56° C | 79% | 1014.9 hPa | 0 mm | - | 46 W/m² | - |
| 1778162270 | 10.56° C | 80% | 1014.7 hPa | 0 mm | - | 61 W/m² | - |
| 1778161968 | 10° C | 81% | 1014.9 hPa | 0 mm | - | 73 W/m² | - |
| 1778161664 | 10° C | 81% | 1014.9 hPa | 0 mm | - | 72 W/m² | - |
| 1778161361 | 10° C | 81% | 1014.9 hPa | 0 mm | - | 76 W/m² | - |
| 1778161056 | 9.44° C | 82% | 1014.9 hPa | 0 mm | - | 64 W/m² | - |
| 1778160753 | 9.44° C | 82% | 1014.7 hPa | 0 mm | - | 74 W/m² | - |
| 1778160451 | 9.44° C | 82% | 1014.9 hPa | 0 mm | - | 62 W/m² | - |
| 1778160147 | 9.44° C | 82% | 1014.8 hPa | 0 mm | - | 43 W/m² | - |
| 1778159844 | 9.44° C | 81% | 1014.4 hPa | 0 mm | - | 41 W/m² | - |
| 1778159542 | 9.44° C | 80% | 1014.1 hPa | 0 mm | - | 46 W/m² | - |
| 1778159238 | 9.44° C | 80% | 1014.5 hPa | 0 mm | - | 41 W/m² | - |
| 1778158936 | 9.44° C | 81% | 1014.8 hPa | 0 mm | - | 32 W/m² | - |
| 1778158634 | 9.44° C | 81% | 1014.4 hPa | 0 mm | - | 31 W/m² | - |
| 1778158332 | 9.44° C | 81% | 1014.3 hPa | 0 mm | - | 27 W/m² | - |
| 1778158028 | 9.44° C | 81% | 1014.3 hPa | 0 mm | - | 26 W/m² | - |
* Rain latest hour (hover to see other rain measurements)
** Current wind speed in m/s (hover to see current wind gust speed)